Regional Weather Roundup
Issued by NWS

Home | Current Version | Previous Version | Graphics & Text | Print | Product List | Glossary On
Versions: 1 2 3 4 5 6 7 8 9 10 11 12 13 14 15 16 17 18 19 20 21 22 23 24 25 26 27 28 29 30 31 32 33 34 35 36 37 38 39 40 41 42 43 44 45 46 47 48 49 50
408
ASUS44 KLIX 220001
RWRLA
LOUISIANA WEATHER ROUNDUP
NATIONAL WEATHER SERVICE NEW ORLEANS LA
600 PM CST SUN DEC 21 2014

NOTE: "FAIR" INDICATES FEW OR NO CLOUDS BELOW 12,000 FEET WITH NO
      SIGNIFICANT WEATHER AND/OR OBSTRUCTIONS TO VISIBILITY.
      SKY/WX - SKY CONDITION AND SIGNIFICANT WEATHER.
      TMP - AIR TEMPERATURE.    DP   - DEWPOINT TEMPERATURE.
      RH  - RELATIVE HUMIDITY.  PRES - PRESSURE.
      HX  - HEAT INDEX.         WCI  - WIND CHILL INDEX.

*  THESE STATIONS ARE NOT NWS OR FAA STATIONS AND ARE NOT UNDER
   NWS QUALITY CONTROL.

LAZ040-048-061>063-065-066-069-220100-
SOUTHEAST LOUISIANA

CITY           SKY/WX    TMP DP  RH WIND       PRES   REMARKS
N.O. AUDUBON     N/A     56  53  89 MISG        N/A
6HR MIN TEMP:  55; 6HR MAX TEMP:  60;

N.O. INTL ARPT CLOUDY    55  51  86 NE7       29.99F
6HR MIN TEMP:  55; 6HR MAX TEMP:  58;

N.O. LAKEFRONT MOCLDY    56  51  84 E6        30.00F
6HR MIN TEMP:  56; 6HR MAX TEMP:  58;

N.O. DOWNTOWN* MOCLDY    55  48  76 NE5       29.99F
6HR MIN TEMP:  55; 6HR MAX TEMP:  59;

SLIDELL        MOCLDY    53  50  89 CALM      29.99R
6HR MIN TEMP:  53; 6HR MAX TEMP:  60;

BATON ROUGE    CLOUDY    56  50  80 E5        29.97F
6HR MIN TEMP:  55; 6HR MAX TEMP:  60;

BOOTHVILLE     CLOUDY    56  55  97 VRB3      30.01R FOG
6HR MIN TEMP:  56; 6HR MAX TEMP:  60;

BELLE CHASSE   CLOUDY    56  53  90 NE8       29.98F
6HR MIN TEMP:  55; 6HR MAX TEMP:  60;

BOGALUSA*        N/A     59  51  74 CALM      30.01S
6HR MIN TEMP:  58; 6HR MAX TEMP:  63;

GALLIANO*      NOT AVBL
NEW ROADS*     NOT AVBL
GONZALES*      NOT AVBL
HAMMOND*       NOT AVBL
HOUMA*         PTCLDY    54  52  94 NE5       29.97F
PORT FOURCHON* PTCLDY    59  55  88 NE8       30.00S

$$

LAZ041-044-053-054-220100-
SOUTHWEST LOUISIANA

CITY           SKY/WX    TMP DP  RH WIND       PRES   REMARKS
LAKE CHARLES   CLOUDY    52  48  86 CALM      29.98S
6HR MIN TEMP:  47; 6HR MAX TEMP:  53;

LAFAYETTE      CLOUDY    54  50  86 CALM      29.98S
6HR MIN TEMP:  50; 6HR MAX TEMP:  56;

PATTERSON      CLOUDY    54  52  94 N5        29.98S
6HR MIN TEMP:  54; 6HR MAX TEMP:  57;

SALT POINT       N/A     57  52  83 CALM      29.96F
6HR MIN TEMP:  57; 6HR MAX TEMP:  60;

NEW IBERIA     CLOUDY    54  51  90 NE3       29.97F
6HR MIN TEMP:  52; 6HR MAX TEMP:  56;

CHENAULT AIRPK CLOUDY    52  48  87 CALM      29.98F

$$

LAZ027-028-220100-
CENTRAL LOUISIANA

CITY           SKY/WX    TMP DP  RH WIND       PRES   REMARKS
FORT POLK      NOT AVBL
ALEXANDRIA INT CLOUDY    50  47  89 S8        29.97F
6HR MIN TEMP:  50; 6HR MAX TEMP:  56;

ALEXANDRIA     CLOUDY    50  47  89 SE6       29.98F
6HR MIN TEMP:  48; 6HR MAX TEMP:  57;


$$

LAZ001-002-220100-
NORTHWEST LOUISIANA

CITY           SKY/WX    TMP DP  RH WIND       PRES   REMARKS
SHREVEPORT     PTCLDY    52  45  77 SE6       29.92F
6HR MIN TEMP:  51; 6HR MAX TEMP:  60;

BARKSDALE AFB  NOT AVBL
DTN SHREVEPORT PTCLDY    53  43  68 SE7       29.92F
6HR MIN TEMP:  53; 6HR MAX TEMP:  58;


$$

LAZ014-016-220100-
NORTHEAST LOUISIANA

CITY           SKY/WX    TMP DP  RH WIND       PRES   REMARKS
MONROE         CLEAR     54  45  71 CALM      29.98S
6HR MIN TEMP:  53; 6HR MAX TEMP:  61;

TALLULAH       CLEAR     51  46  83 E3        29.99R
6HR MIN TEMP:  51; 6HR MAX TEMP:  62;


$$




USA.gov is the U.S. government's official web portal to all federal, state and local government web resources and services.